Flag for U.S.A. Weather past 2 weeks in Ann Arbor, Michigan, U.S.A.

Now
39 °F

Clear.


Feels Like: 36 °F
Forecast: 34 / 69 °F
Wind: 5 mph from East

Location: Ann Arbor Municipal Airport


UV Index: 5 (Moderate)

Visibility: 10 mi


Pressure: 30.34 "Hg

Humidity: 67%

Dew point: 29 °F

Location of Ann ArborLocation

Historic Weather in Ann Arbor

°F

Ann Arbor temperature yesterday

Maximum temperature yesterday: 56 °F (at 2:53 PM)
Minimum temperature yesterday: 32 °F (at 6:53 AM)
Average temperature yesterday: 44 °F

Past Weeks' High & Low Weather Summary

 TemperatureHumidityPressure
High76 °F (Apr 13, 1:53 PM)96% (Apr 6, 6:53 AM)30.46 "Hg (Apr 6, 6:53 AM)
Low18 °F (Apr 16, 3:53 AM)16% (Apr 11, 2:53 PM)29.41 "Hg (Apr 14, 6:53 AM)
Average47 °F58%30.00 "Hg
* Reported Apr 5 1:53 AM — Apr 20 1:53 AM, Ann Arbor, Weather by CustomWeather, © 2014

Note: Actual official high and low records may vary slightly from our data, if they occured in-between our weather recording intervals... More about our weather records

Advertising

Historic Weather Conditions — Data for Previous 24 hours

 ConditionsComfort  
Time TempWeatherWind HumidityBarometerVisibility
1:53 AM
Apr 20
39 °FClear.5 mph67%30.34 "Hg10 mi
12:53 AM37 °FClear.3 mph73%30.36 "Hg10 mi
11:53 PM
Apr 19
39 °FClear.No wind67%30.36 "Hg10 mi
10:53 PM38 °FClear.No wind70%30.36 "Hg10 mi
9:53 PM42 °FClear.3 mph60%30.37 "Hg10 mi
8:53 PM45 °FSunny.9 mph56%30.37 "Hg10 mi
7:53 PM48 °FSunny.8 mph48%30.36 "Hg10 mi
6:53 PM52 °FSunny.12 mph43%30.35 "Hg10 mi
5:53 PM55 °FSunny.12 mph35%30.36 "Hg10 mi
4:53 PM56 °FSunny.10 mph27%30.37 "Hg10 mi
3:53 PM56 °FSunny.10 mph27%30.39 "Hg10 mi
2:53 PM56 °FSunny.9 mph27%30.41 "Hg10 mi
1:53 PM55 °FSunny.10 mph30%30.42 "Hg10 mi
12:53 PM52 °FSunny.8 mph35%30.44 "Hg10 mi
11:53 AM50 °FSunny.12 mph41%30.45 "Hg10 mi
10:53 AM47 °FSunny.9 mph48%30.46 "Hg10 mi
9:53 AM43 °FSunny.12 mph58%30.46 "Hg10 mi
8:53 AM39 °FSunny.7 mph67%30.45 "Hg10 mi
7:53 AM35 °FPassing clouds.9 mph75%30.44 "Hg10 mi
6:53 AM32 °FClear.5 mph79%30.42 "Hg10 mi
5:53 AM33 °FClear.7 mph78%30.41 "Hg10 mi
4:53 AM34 °FClear.7 mph76%30.39 "Hg10 mi
3:53 AM36 °FClear.9 mph73%30.38 "Hg10 mi
Weather by CustomWeather, © 2014

See weather overview